Location: Unspecified
(0.0000°N, 0.0000°E)
Time: 05:54:56
(UTC+00:00)

X-37B - Pass Details

Date: 03 August 2020
Orbit: 379 x 395 km, 45.0° (Epoch: 12 August)

Event Time Altitude Azimuth Distance (km) Brightness Sun altitude
Rises 19:06:39 0° 236° (SW) 2,237 5.0 -14.4°
Reaches altitude 10° 19:08:49 10° 246° (WSW) 1,385 4.1 -14.9°
Maximum altitude 19:11:40 33° 312° (NW) 662 2.4 -15.6°
Drops below altitude 10° 19:14:31 10° 19° (NNE) 1,384 3.4 -16.3°
Enters shadow 19:16:35 - 29° (NNE) 2,193 4.3 -16.8°
